Regional Weather Roundup
Issued by NWS State College, PA

Home | Current Version | Previous Version | Graphics & Text | Print | Product List | Glossary Off
Versions: 1 2 3 4 5 6 7 8 9 10 11 12 13 14 15 16 17 18 19 20 21 22 23 24 25 26 27 28 29 30 31 32 33 34 35 36 37 38 39 40 41 42 43 44 45 46 47 48 49 50

000
ASUS41 KCTP 290303
RWRCTP

REGIONAL WEATHER ROUNDUP
NATIONAL WEATHER SERVICE STATE COLLEGE PA
1000 PM EST FRI NOV 28 2014

Note: "fair" indicates few or no clouds below 12,000 feet with no
significant weather and/or obstructions to visibility.

* = STATION THAT DOES NOT REPORT PRECIPITATION /E.G. RAIN...SNOW...ETC/
    THUNDER OR FOG.

PAZ002>004-007>009-013>016-020>023-029>032-290400-
WESTERN PENNSYLVANIA

CITY           SKY/WX    TMP DP  RH WIND       PRES   REMARKS
ERIE           CLOUDY    26  14  60 S9        30.19S
MEADVILLE      LGT SNOW  23  15  71 VRB6      30.14F
FRANKLIN*      CLOUDY    21  14  73 S8        30.17S WCI  12
NEW CASTLE       N/A     25  18  74 CALM      30.19F
BEAVER COUNTY  NOT AVBL
BUTLER*        CLOUDY    25  18  74 S5        30.20S
PITTSBURGH INT CLOUDY    26  19  74 S6        30.19S
PITTSBURGH     CLOUDY    26  15  63 S7        30.19F
INDIANA*       CLOUDY    19  16  86 CALM      30.23S
LATROBE        PTCLDY    25  18  74 CALM      30.23F
WASHINGTON CO* CLOUDY    27  18  69 S3        30.21S
$$

PAZ004>006-010>012-017>019-024>028-033>037-041-042-045-046-049>053-290400-
CENTRAL PENNSYLVANIA

CITY           SKY/WX    TMP DP  RH WIND       PRES   REMARKS
BRADFORD       PTCLDY    17  10  74 CALM      30.12F
DUBOIS         MOCLDY    19  12  74 CALM      30.15S
CLEARFIELD     PTCLDY    18  14  84 CALM      30.19S
JOHNSTOWN      PTCLDY    20  13  74 SW7       30.14S WCI  11
ALTOONA        PTCLDY    23  15  71 SW7       30.20S WCI  15
STATE COLLEGE  PTCLDY    20  13  72 CALM      30.21F
WILLIAMSPORT   PTCLDY    22  15  75 N3        30.25S
SELINSGROVE    PTCLDY    20  16  84 CALM      30.27S
FT INDIANTOWN  CLEAR     28  13  53 W7        30.26F
CAPITAL CITY   PTCLDY    26  16  65 W6        30.27F
HARRISBURG     MOCLDY    26  16  65 NW7       30.27S
YORK           PTCLDY    22  14  71 CALM      30.27R
$$

PAZ038>040-043-044-047-048-054-055-060>062-067>071-290400-
EASTERN PENNSYLVANIA

CITY           SKY/WX    TMP DP  RH WIND       PRES   REMARKS
SCRANTON       CLEAR     15   9  76 S6        30.22S WCI   6
MOUNT POCONO   CLEAR     16   8  71 NW5       30.14S WCI   9
ALLENTOWN      CLEAR     21  13  71 CALM      30.26S
QUAKERTOWN*    CLEAR     19  16  86 CALM      30.26S
READING        CLEAR     28  15  58 W5        30.25F
LANCASTER      PTCLDY    26  15  63 CALM      30.26F
COATESVILLE    PTCLDY    27  16  63 W3        30.25F
POTTSTOWN      PTCLDY    23  17  78 CALM      30.27F
BLUE BELL      PTCLDY    27  23  86 CALM      30.26S
DOYLESTOWN     CLEAR     22  17  81 CALM      30.26S
WILLOW GROVE   NOT AVBL
NORTH PHILA    CLEAR     30  16  56 CALM      30.29S
PHILADELPHIA   MOCLDY    32  16  51 W8        30.29S
$$


USA.gov is the U.S. government's official web portal to all federal, state and local government web resources and services.